FLOCK 4P-6

Last updated on Sat Dec 28 2019 00:02:03 GMT+0000 (Coordinated Universal Time)

1 44817U 19081P 19361.16352581 .00000539 00000-0 28448-4 0 9991 2 44817 97.5203 58.1101 0012534 131.6128 228.6182 15.19742511 4554
UTC large
Height (km)
Speed (km/s)
/
Latitude / Longitude
Inclination (degrees)
Orbital Period (minutes)
Azimuth
Elevation
Range (km)
Doppler Factor

Next 0 passes for location: London (51.5072 / 0.1276)

Sorry there are no passes over London.